Regional Weather Roundup
Issued by NWS Grand Forks, ND

Home | Current Version | Previous Version | Graphics & Text | Print | Product List | Glossary On
Versions: 1 2 3 4 5 6 7 8 9 10 11 12 13 14 15 16 17 18 19 20 21 22 23 24 25 26 27 28 29 30 31 32 33 34 35 36 37 38 39 40 41 42 43 44 45 46 47 48 49 50
000
ASUS43 KFGF 252110
RWRFGF
PRAIRIE TO PINES  WEATHER ROUNDUP
NATIONAL WEATHER SERVICE EASTERN NORTH DAKOTA/GRAND FORKS ND
400 PM CDT WED MAY 25 2016

 **SATELLITE DATA USED TO AUGMENT SKY COVER AT AUTOMATED STATIONS**
 *****  WEATHER ACROSS EASTERN NORTH DAKOTA  *****

CITY           SKY/WX    TMP DP  RH WIND       PRES   REMARKS
GRAND FORKS    HVY RAIN  62  59  90 NE13      29.72F FOG
GRAND FRKS AFB HVY RAIN  60  60 100 NE10      29.73F FOG
GRAND FRKS NWS   N/A     59 N/A N/A E6          N/A
DEVILS LAKE    NOT AVBL
FARGO          CLOUDY    68  63  84 S10       29.68S
WAHPETON ARPT  PTCLDY    72  59  64 W25       29.71R
$$

 ***** WEATHER ACROSS CENTRAL AND WESTERN NORTH DAKOTA  *****

CITY           SKY/WX    TMP DP  RH WIND       PRES   REMARKS
BISMARCK       MOSUNNY   69  56  62 SE6       29.74F
MINOT          CLOUDY    66  58  75 E8        29.76S
JAMESTOWN      NOT AVBL
MINOT AFB      CLOUDY    62  57  82 SE8       29.76S
GARRISON         N/A     61  55  81 S3        29.75F
WILLISTON      CLOUDY    56  49  77 NW15      29.83F
DICKINSON      CLOUDY    56  47  71 NW22      29.81R
HETTINGER      CLOUDY    62  45  53 NW24G31   29.84S
$$

 *****  OTHER AIRPORT OBSERVATIONS IN OUR AREA  *****

CITY           SKY/WX    TMP DP  RH WIND       PRES   REMARKS
WALHALLA       LGT RAIN  57  57 100 E10       29.85F
GRAFTON AIRPOR LGT RAIN  59  59 100 NE10      29.80F
VALLEY CITY AR CLOUDY    61  61 100 N14       29.77S
CANDO          LGT RAIN  57  57 100 NE13G18   29.83F
CAVALIER APRT  LGT RAIN  59  59 100 E12G21    29.82F
GWINNER        MOCLDY    70  61  73 W8        29.75R
SHEYENNE NWR     N/A     69  62  79 NW10      29.95S
ROLLA          RAIN      55  55 100 NE14      29.83F
 ***** THE ABOVE OBSERVATIONS ARE NON NWS ARE NOT QUALITY
       CONTROLLED AND MAY MIS-REPORT RAIN FOR SNOW...
$$

  *****  WEATHER ACROSS NORTHERN MINNESOTA  *****

CITY           SKY/WX    TMP DP  RH WIND       PRES   REMARKS
FLAG ISLAND    CLOUDY    61  55  82 NE17      29.86F
WARROAD        CLOUDY    57  54  88 E12       29.86F
ROSEAU         CLOUDY    59  54  82 E15G21    29.84F
HALLOCK        LGT RAIN  59  57  94 E15G22    29.81F
THF RVR FALLS  CLOUDY    61  57  88 E16       29.77F
BAUDETTE       CLOUDY    63  55  75 E15       29.85F
WASKISH        LGT RAIN  64  57  77 E6        29.83F
CROOKSTON      RAIN      59  59 100 E14       29.74F
STEPHEN NDAWN    N/A     61  59  94 NE12        N/A
GREENBUSH NDAW   N/A     61  57  88 NE9         N/A
$$
  *****  WEATHER ACROSS CENTRAL AND WEST MINNESOTA  *****

CITY           SKY/WX    TMP DP  RH WIND       PRES   REMARKS
FOSSTON        HVY RAIN  57  55  94 E10G17    29.74F
BEMIDJI        RAIN      60  57  91 E14       29.79F
PARK RAPIDS    PTSUNNY   63  58  83 E18G25    29.76F
ELBOW LAKE     FAIR      75  61  63 SW21      29.75S
WADENA         CLOUDY    66  61  82 SE26      29.74F
DETROIT LAKES  CLOUDY    63  59  88 SE13G22   29.73S
MOORHEAD       MOSUNNY   66  64  94 S9        29.69F
FERGUS FALLS   PTSUNNY   72  61  68 SW22      29.69R
MORRIS MN      MOSUNNY   77  59  53 SW18G26   29.74S
STAPLES        CLOUDY    66  59  77 SE13G20   29.79S
$$
  *****  WEATHER ELSEWHERE ACROSS MINNESOTA  *****

CITY           SKY/WX    TMP DP  RH WIND       PRES   REMARKS
DULUTH         LGT RAIN  49  47  93 E14       29.96R VSB 3/4
INTRNTL FALLS  CLOUDY    67  55  65 E10       29.88F
ELY            CLOUDY    66  46  48 E7        29.94S
CLOQUET        LGT RAIN  48  46  93 E12G17    29.94S
WHEATON        MOSUNNY   77  63  61 SW16G23   29.74F
BRAINERD       PTSUNNY   65  58  78 SE12G21   29.82F
HIBBING        LGT RAIN  60  54  80 S5        29.92S
ALEXANDRIA     PTSUNNY   71  63  75 SE14      29.77F
SAINT CLOUD    PTSUNNY   70  66  87 SE7       29.81F
MINNEAPOLIS    CLOUDY    72  63  73 SE13      29.81F
$$

  *****  WEATHER ACROSS SOUTH DAKOTA  *****

CITY           SKY/WX    TMP DP  RH WIND       PRES   REMARKS
SIOUX FALLS    MOSUNNY   77  60  55 W9        29.80F
BROOKINGS      PTSUNNY   74  60  61 SW13      29.80F
WATERTOWN      MOSUNNY   75  58  55 SW15G25   29.78S
HURON          MOSUNNY   75  59  57 SW5       29.77F
SISSETON         N/A     75  59  57 W13       29.73R
ABERDEEN       MOSUNNY   75  59  57 W9        29.74S
MITCHELL       PTSUNNY   74  59  59 SW6G16    29.79F
PIERRE         MOSUNNY   75  56  51 NW12      29.76S
MOBRIDGE       MOSUNNY   75  55  49 NW3       29.73S
RAPID CITY     MOSUNNY   63  53  70 N16       29.87R
$$

  *****  SOME WEATHER IN NEARBY STATES *****

CITY           SKY/WX    TMP DP  RH WIND       PRES   REMARKS
GLASGOW MT     CLOUDY    63  46  54 N13       29.85R
GREAT FALLS MT LGT RAIN  58  45  62 N10       29.87R
CHEYENNE WY    CLOUDY    59  38  45 E5        29.98F
SCOTTSBLUFF NE MOSUNNY   72  36  26 W9        29.92S
OMAHA NE       CLOUDY    79  64  60 S13       29.83S
DES MOINES IA  CLOUDY    78  62  57 S8        29.86S
DAVENPORT IA   CLOUDY    84  61  45 S13       29.88F
CHICAGO IL     PTSUNNY   85  61  44 SE12G18   29.88F
EAU CLAIRE WI  HVY RAIN  66  63  90 SE6       29.84F FOG
LA CROSSE WI   MOSUNNY   75  67  76 SE6       29.81F
$$

  *****  SOME NATIONAL WEATHER *****

CITY           SKY/WX    TMP DP  RH WIND       PRES   REMARKS
LA GUARDIA NY  PTSUNNY   90  48  23 W12G21    30.01S
RALEIGH NC     MOSUNNY   86  57  37 SW10      30.16F
ATLANTA GA     MOSUNNY   86  53  32 S8        30.18F
NEW ORLEANS LA PTSUNNY   88  73  61 SE15      30.10F HX  95
OKLAHOMA CITY  PTSUNNY   88  72  58 S21       29.87F HX  94
ALBUQUERQUE NM MOSUNNY   76  18  11 S9        30.06F
SALT LAKE CITY MOSUNNY   64  36  35 E7        30.00F
LOS ANGELES CA PTSUNNY   64  50  60 SW13      30.09F
BOISE ID       PTSUNNY   70  37  29 NW14G23   29.98F
SEATTLE WA     PTSUNNY   64  50  60 SW9       30.18R
$$

*** WEATHER ACROSS MANITOBA...SASKATCHEWAN AND ONTARIO ***
                ***ONTARIO***

CITY           SKY/WX    TMP DP  RH WIND       PRES   REMARKS
GERALDTON      PTSUNNY   72  41  33 SE10G18   30.06F
THUNDER BAY    CLOUDY    55  46  71 SE8       30.04F
SIOUX LOOKOUT  CLOUDY    63  54  72 SE6       29.98F
TORONTO        PTSUNNY   86  57  37 W23       30.01S
BIG TROUT LK   PTSUNNY   59  50  72 SE6       30.03F
PICKLE LAKE    PTSUNNY   68  48  49 S10G17    30.00F
DRYDEN         PTSUNNY   64  55  72 E8        29.95F
KENORA         CLOUDY    63  55  77 E8        29.92F
$$
                *** MANITOBA***

CITY           SKY/WX    TMP DP  RH WIND       PRES   REMARKS
BRANDON        LGT RAIN  57  57 100 NE9       29.86S FOG
DAUPHIN        MOSUNNY   68  55  64 E12       29.85F
ISLAND LAKE    MOSUNNY   70  48  46 E3        29.92F
PILOT MOUND      N/A     57  57 100 E9G20       N/A
THE PAS        MOSUNNY   68  48  49 N8        29.89F
THOMPSON       MOSUNNY   68  43  40 S6        29.90F
WINNIPEG       LGT RAIN  64  55  72 S12G18    29.86S
LYNN LAKE      MOSUNNY   68  45  42 S8        29.85F
CHURCHILL      LGT RAIN  36  34  93 SE16G22   30.02F
GILLAM         SUNNY     66  36  32 S9        29.95F
$$
                ***SASKATCHEWAN***

CITY           SKY/WX    TMP DP  RH WIND       PRES   REMARKS
ESTEVAN        LGT RAIN  59  55  88 NE15      29.80F
KINDERSLEY     PTSUNNY   55  45  67 N3        29.90S
LLOYDMINSTER   PTSUNNY   66  45  45 VRB5      29.88S
PRINCE ALBERT  MOSUNNY   64  54  68 W5        29.89F
REGINA         LGT RAIN  55  50  82 NW13      29.87S
YORKTON        CLOUDY    64  50  59 S7        29.84F
N. BATTLEFORD  MOSUNNY   63  50  63 CALM      29.91F
LA RONGE       MOSUNNY   61  46  59 NE12      29.89F
SASKATOON      PTSUNNY   64  48  55 NE6       29.88F
SWIFT CURRENT  CLOUDY    59  48  67 NE6       29.85F
$$
NOTE: THESE ARE AUTOMATED STATIONS WITH LIMITED QUALITY CONTROL
      "FAIR" INDICATES FEW OR NO CLOUDS BELOW 12,000 FEET WITH NO
      SIGNIFICANT WEATHER AND/OR OBSTRUCTIONS TO VISIBILITY.
      SKY/WX - SKY CONDITION AND SIGNIFICANT WEATHER.
      TMP - AIR TEMPERATURE.    DP   - DEWPOINT TEMPERATURE.
      RH  - RELATIVE HUMIDITY.  PRES - PRESSURE.
      HX  - HEAT INDEX.         WCI  - WIND CHILL INDEX.
$




USA.gov is the U.S. government's official web portal to all federal, state and local government web resources and services.